CST,Max TemperatureF,Mean TemperatureF,Min TemperatureF,Max Dew PointF,MeanDew PointF,Min DewpointF,Max Humidity, Mean Humidity, Min Humidity, Max Sea Level PressureIn, Mean Sea Level PressureIn, Min Sea Level PressureIn, Max VisibilityMiles, Mean VisibilityMiles, Min VisibilityMiles, Max Wind SpeedMPH, Mean Wind SpeedMPH, Max Gust SpeedMPH,PrecipitationIn, CloudCover, Events, WindDirDegrees
2012-12-1,49,43,37,48,40,33,93,88,83,30.20,29.97,29.80,4,2,0,18,8,22,0.01,8,Fog,160
2012-12-2,50,46,42,48,42,37,100,88,76,30.08,29.96,29.80,6,4,1,9,5,31,0.00,8,,259
2012-12-3,62,52,42,58,48,39,100,89,77,30.05,29.82,29.64,10,3,0,23,12,36,0.15,7,Fog-Rain,170
2012-12-4,47,36,24,37,26,13,82,66,49,30.34,30.07,29.88,10,10,10,28,13,35,0.00,0,,265
2012-12-5,34,28,21,27,19,14,85,71,56,30.47,30.38,30.21,10,10,10,10,6,15,0.00,1,,183
2012-12-6,41,37,32,35,31,27,89,80,70,30.19,29.95,29.83,10,9,7,22,11,28,0.02,6,Rain,198
2012-12-7,38,35,32,30,26,23,82,73,64,30.03,29.99,29.91,10,10,10,13,6,16,0.00,4,,357
2012-12-8,38,32,26,25,22,20,85,69,52,30.20,30.08,29.97,10,10,6,13,6,16,T,4,,24
2012-12-9,34,30,26,31,28,19,92,81,69,30.18,29.95,29.72,10,4,0,17,9,20,0.36,8,Fog-Snow,65
2012-12-10,32,26,19,29,23,17,91,80,69,29.94,29.79,29.70,10,7,1,18,7,22,0.03,7,Snow,353
2012-12-11,27,24,21,23,19,16,88,76,63,30.07,29.94,29.86,10,8,4,17,8,23,0.01,7,Snow,227
2012-12-12,40,35,30,27,21,13,91,73,54,30.22,30.14,30.07,10,8,4,21,8,29,0.00,4,,194
2012-12-13,39,31,22,27,24,20,81,68,54,30.14,30.09,30.04,10,10,7,17,9,23,0.00,0,,210
2012-12-14,39,30,20,32,27,18,96,86,76,30.25,30.17,30.05,10,7,3,13,6,16,0.00,2,,46
2012-12-15,43,36,29,42,37,28,100,93,85,30.04,29.74,29.53,6,3,0,17,8,24,0.26,8,Fog-Rain,114
2012-12-16,43,40,36,41,37,32,100,90,79,29.68,29.58,29.52,10,5,0,16,6,20,0.03,8,Fog-Rain,270
2012-12-17,36,33,29,31,25,21,89,79,69,29.75,29.71,29.67,10,9,5,14,7,19,0.00,8,,287
2012-12-18,33,30,26,25,23,19,78,71,63,29.84,29.75,29.69,10,10,8,10,5,12,T,7,Snow,357
2012-12-19,33,28,23,26,24,20,88,82,75,30.10,30.01,29.81,10,7,5,12,5,15,0.00,6,,258
2012-12-20,34,33,31,34,30,26,100,89,78,29.96,29.51,29.33,5,1,0,36,21,46,1.18,8,Fog-Snow,15
2012-12-21,33,25,17,29,19,11,85,74,63,30.17,29.91,29.52,10,9,2,30,16,37,0.02,5,Snow,324
2012-12-22,23,15,7,13,10,4,92,77,62,30.19,30.09,29.96,10,10,9,14,6,16,0.00,0,,225
2012-12-23,26,18,10,18,13,8,92,77,62,30.09,30.04,29.94,10,10,8,20,6,24,0.00,3,,325
2012-12-24,23,18,12,18,15,11,92,82,71,30.18,30.02,29.96,10,5,0,12,6,14,0.10,7,Fog-Snow,353
2012-12-25,25,18,10,16,11,5,80,71,62,30.42,30.34,30.19,10,10,10,15,8,17,0.00,5,,346
2012-12-26,27,22,17,20,15,12,81,75,68,30.37,30.25,30.17,10,10,10,22,13,25,T,7,,7
2012-12-27,26,24,22,19,16,15,81,75,68,30.25,30.21,30.16,10,10,10,15,8,19,T,8,,356
2012-12-28,27,23,18,25,21,13,92,85,77,30.19,30.05,29.91,10,3,1,18,11,22,0.22,8,Snow,36
2012-12-29,29,25,20,26,21,14,92,84,75,30.16,29.98,29.89,10,4,1,18,10,22,0.15,8,Snow,342
2012-12-30,22,16,10,16,10,6,83,75,67,30.27,30.16,29.95,10,6,4,15,8,19,T,5,,226
2012-12-31,29,15,0,21,10,-6,84,71,57,30.20,30.04,29.92,10,8,4,17,9,21,0.00,4,,282